Location: Newark
(40.4167°N, 3.7000°W)
Time: 17:06:35
(UTC+00:00)

Tiangong 2 - Visible Passes

Search period start: 19 July 2019 00:00
Search period end: 29 July 2019 00:00
Orbit: 185 x 376 km, 42.8° (Epoch: 19 July)

Date Brightness Start Highest point End Pass type
(mag) Time Alt. Az. Time Alt. Az. Time Alt. Az.
19 Jul 1.9 21:39:30 10° W 21:42:03 36° SW 21:42:03 36° SW visible
20 Jul 2.8 21:40:49 10° W 21:42:47 22° SW 21:42:47 22° SW visible
21 Jul 3.5 21:42:07 10° WSW 21:43:10 13° SW 21:43:10 13° SW visible
22 Jul 1.7 20:07:04 10° W 20:10:00 43° SSW 20:12:56 10° SE visible
23 Jul 2.5 20:07:09 10° W 20:09:46 26° SSW 20:12:24 10° SSE visible
24 Jul 3.3 20:07:06 10° WSW 20:09:06 16° SW 20:11:06 10° S visible
